| time (UTC) | temp F | wind direction | speed knots | gust knots | rain 1hr in | rain 24hr in | rain mn in | humidity % | barometer mb |
| 20260507182004 | 57 | 87 | 1.7 | 7.8 | 0.00 | 0.00 | 0.00 | 76 | 1014.2 |
| 20260507181504 | 58 | 73 | 1.7 | 7.8 | 0.00 | 0.00 | 0.00 | 75 | 1014.2 |
| 20260507181004 | 58 | 89 | 1.7 | 7.8 | 0.00 | 0.00 | 0.00 | 74 | 1014.2 |
| 20260507180504 | 58 | 90 | 1.7 | 7.8 | 0.00 | 0.00 | 0.00 | 72 | 1014.2 |
| 20260507175504 | 58 | 106 | 1.7 | 7.8 | 0.00 | 0.00 | 0.00 | 72 | 1014.1 |
| 20260507175004 | 59 | 181 | 1.7 | 6.1 | 0.00 | 0.00 | 0.00 | 71 | 1014.1 |
| 20260507174504 | 58 | 164 | 2.6 | 6.1 | 0.00 | 0.00 | 0.00 | 70 | 1014.2 |
| 20260507171503 | 59 | 97 | 1.7 | 6.1 | 0.00 | 0.00 | 0.00 | 70 | 1014.3 |
| 20260507171004 | 58 | 81 | 1.7 | 8.7 | 0.00 | 0.00 | 0.00 | 69 | 1014.4 |
| 20260507170503 | 58 | 68 | 1.7 | 8.7 | 0.00 | 0.00 | 0.00 | 68 | 1014.5 |
| 20260507170004 | 58 | 79 | 1.7 | 7.8 | 0.00 | 0.00 | 0.00 | 71 | 1014.4 |
| 20260507165504 | 57 | 93 | 2.6 | 7.8 | 0.00 | 0.00 | 0.00 | 70 | 1014.5 |
| 20260507165004 | 57 | 91 | 2.6 | 7.8 | 0.00 | 0.00 | 0.00 | 69 | 1014.4 |
| 20260507164504 | 58 | 90 | 2.6 | 7.8 | 0.00 | 0.00 | 0.00 | 68 | 1014.4 |
| 20260507163004 | 59 | 137 | 1.7 | 7.8 | 0.00 | 0.00 | 0.00 | 65 | 1014.4 |
| 20260507162503 | 59 | 192 | 1.7 | 6.1 | 0.00 | 0.00 | 0.00 | 64 | 1014.4 |
| 20260507162005 | 60 | 110 | 1.7 | 6.1 | 0.00 | 0.00 | 0.00 | 65 | 1014.4 |
| 20260507161503 | 59 | 101 | 2.6 | 6.1 | 0.00 | 0.00 | 0.00 | 65 | 1014.4 |
| 20260507160503 | 58 | 92 | 2.6 | 7.8 | 0.00 | 0.00 | 0.00 | 66 | 1014.4 |
| 20260507154504 | 59 | 167 | 2.6 | 7.8 | 0.00 | 0.00 | 0.00 | 65 | 1014.5 |
| 20260507154003 | 59 | 194 | 2.6 | 7.8 | 0.00 | 0.00 | 0.00 | 63 | 1014.6 |
| 20260507153004 | 59 | 82 | 1.7 | 5.2 | 0.00 | 0.00 | 0.00 | 64 | 1014.6 |
| 20260507152504 | 58 | 86 | 2.6 | 8.7 | 0.00 | 0.00 | 0.00 | 63 | 1014.6 |
| 20260507152003 | 58 | 93 | 2.6 | 8.7 | 0.00 | 0.00 | 0.00 | 63 | 1014.6 |
| 20260507150004 | 59 | 209 | 1.7 | 7.8 | 0.00 | 0.00 | 0.00 | 64 | 1014.6 |
| 20260507145004 | 58 | 199 | 2.6 | 8.7 | 0.00 | 0.00 | 0.00 | 61 | 1014.7 |
| 20260507144004 | 58 | 207 | 2.6 | 8.7 | 0.00 | 0.00 | 0.00 | 62 | 1014.9 |
| 20260507143003 | 59 | 192 | 2.6 | 8.7 | 0.00 | 0.00 | 0.00 | 60 | 1015.0 |
| 20260507142003 | 59 | 202 | 2.6 | 8.7 | 0.00 | 0.00 | 0.00 | 59 | 1015.0 |
| 20260507140004 | 60 | 198 | 3.5 | 8.7 | 0.00 | 0.00 | 0.00 | 57 | 1015.2 |
| 20260507132003 | 61 | 211 | 3.5 | 10.4 | 0.00 | 0.00 | 0.00 | 57 | 1015.2 |
| 20260507131006 | 61 | 199 | 2.6 | 8.7 | 0.00 | 0.00 | 0.00 | 59 | 1015.2 |
| 20260507125006 | 61 | 201 | 3.5 | 10.4 | 0.00 | 0.00 | 0.00 | 57 | 1015.3 |
| 20260507124505 | 61 | 202 | 5.2 | 11.3 | 0.00 | 0.00 | 0.00 | 57 | 1015.3 |
| 20260507123506 | 61 | 193 | 5.2 | 11.3 | 0.00 | 0.00 | 0.00 | 55 | 1015.3 |
| 20260507122505 | 62 | 199 | 3.5 | 11.3 | 0.00 | 0.00 | 0.00 | 58 | 1015.3 |
| 20260507114506 | 60 | 188 | 2.6 | 8.7 | 0.00 | 0.00 | 0.00 | 65 | 1015.5 |
| 20260507113505 | 60 | 209 | 2.6 | 6.1 | 0.00 | 0.00 | 0.00 | 69 | 1015.4 |
| 20260507112005 | 59 | 200 | 2.6 | 6.1 | 0.00 | 0.00 | 0.00 | 69 | 1015.4 |
| 20260507103505 | 57 | 202 | 2.6 | 10.4 | 0.00 | 0.00 | 0.00 | 74 | 1015.6 |
| 20260507103005 | 57 | 218 | 2.6 | 6.1 | 0.00 | 0.00 | 0.00 | 75 | 1015.6 |
| 20260507101507 | 56 | 223 | 2.6 | 6.1 | 0.00 | 0.00 | 0.00 | 79 | 1015.6 |
| 20260507101005 | 56 | 222 | 1.7 | 6.1 | 0.00 | 0.00 | 0.00 | 79 | 1015.6 |
| 20260507095505 | 55 | 194 | 1.7 | 5.2 | 0.00 | 0.00 | 0.00 | 83 | 1015.7 |
| 20260507095005 | 55 | 202 | 2.6 | 8.7 | 0.00 | 0.00 | 0.00 | 83 | 1015.7 |
| 20260507094005 | 55 | 197 | 2.6 | 6.1 | 0.00 | 0.00 | 0.00 | 84 | 1015.7 |
| 20260507093006 | 55 | 195 | 1.7 | 6.1 | 0.00 | 0.00 | 0.00 | 86 | 1015.5 |
| 20260507092505 | 55 | 197 | 1.7 | 5.2 | 0.00 | 0.00 | 0.00 | 87 | 1015.5 |
| 20260507091505 | 54 | 202 | 1.7 | 3.5 | 0.00 | 0.00 | 0.00 | 89 | 1015.6 |
| 20260507090505 | 53 | 0 | 0.0 | 5.2 | 0.00 | 0.00 | 0.00 | 90 | 1015.6 |
| 20260507085505 | 52 | 0 | 0.0 | 0.0 | 0.00 | 0.00 | 0.00 | 92 | 1015.6 |
| 20260507085005 | 52 | 0 | 0.0 | 0.0 | 0.00 | 0.00 | 0.00 | 92 | 1015.6 |
| 20260507084505 | 51 | 0 | 0.0 | 0.0 | 0.00 | 0.00 | 0.00 | 92 | 1015.5 |
| 20260507081505 | 49 | 0 | 0.0 | 0.0 | 0.00 | 0.00 | 0.00 | 95 | 1015.7 |
| 20260507081004 | 49 | 0 | 0.0 | 0.0 | 0.00 | 0.00 | 0.00 | 95 | 1015.7 |
| 20260507080505 | 49 | 0 | 0.0 | 0.0 | 0.00 | 0.00 | 0.00 | 95 | 1015.7 |
| 20260507080005 | 48 | 0 | 0.0 | 0.0 | 0.00 | 0.00 | 0.00 | 95 | 1015.8 |
| 20260507075504 | 48 | 0 | 0.0 | 0.0 | 0.00 | 0.00 | 0.00 | 96 | 1015.7 |
| 20260507074505 | 47 | 0 | 0.0 | 0.0 | 0.00 | 0.00 | 0.00 | 96 | 1015.6 |
| 20260507074005 | 47 | 0 | 0.0 | 0.0 | 0.00 | 0.00 | 0.00 | 96 | 1015.7 |
| 20260507073005 | 46 | 0 | 0.0 | 0.0 | 0.00 | 0.00 | 0.00 | 96 | 1015.7 |
| 20260507065505 | 44 | 0 | 0.0 | 0.0 | 0.00 | 0.00 | 0.00 | 97 | 1015.5 |
| 20260507065007 | 44 | 0 | 0.0 | 0.0 | 0.00 | 0.00 | 0.00 | 97 | 1015.5 |
| 20260507064004 | 44 | 0 | 0.0 | 0.0 | 0.00 | 0.00 | 0.00 | 97 | 1015.4 |
| 20260507063005 | 44 | 0 | 0.0 | 0.0 | 0.00 | 0.00 | 0.00 | 97 | 1015.3 |
| 20260507062504 | 43 | 0 | 0.0 | 0.0 | 0.00 | 0.00 | 0.00 | 97 | 1015.3 |
| 20260507062005 | 43 | 0 | 0.0 | 0.0 | 0.00 | 0.00 | 0.00 | 97 | 1015.3 |
| 20260507061505 | 43 | 0 | 0.0 | 0.0 | 0.00 | 0.00 | 0.00 | 97 | 1015.2 |
| 20260507060505 | 43 | 0 | 0.0 | 0.0 | 0.00 | 0.00 | 0.00 | 97 | 1015.2 |
| 20260507053504 | 42 | 0 | 0.0 | 0.0 | 0.00 | 0.00 | 0.00 | 97 | 1015.1 |
| 20260507052505 | 42 | 0 | 0.0 | 0.0 | 0.00 | 0.00 | 0.00 | 97 | 1015.1 |
| 20260507052004 | 42 | 0 | 0.0 | 0.0 | 0.00 | 0.00 | 0.00 | 97 | 1015.0 |
| 20260507051504 | 42 | 0 | 0.0 | 0.0 | 0.00 | 0.00 | 0.00 | 97 | 1015.0 |
| 20260507050005 | 42 | 0 | 0.0 | 0.0 | 0.00 | 0.00 | 0.00 | 97 | 1014.9 |
| 20260507045504 | 42 | 0 | 0.0 | 0.0 | 0.00 | 0.00 | 0.00 | 97 | 1014.9 |
| 20260507045005 | 42 | 0 | 0.0 | 0.0 | 0.00 | 0.00 | 0.00 | 97 | 1014.9 |
| 20260507044504 | 42 | 0 | 0.0 | 0.0 | 0.00 | 0.00 | 0.00 | 97 | 1015.0 |
| 20260507044004 | 42 | 0 | 0.0 | 0.0 | 0.00 | 0.00 | 0.00 | 97 | 1015.0 |
| 20260507043505 | 41 | 0 | 0.0 | 0.0 | 0.00 | 0.00 | 0.00 | 97 | 1015.0 |
| 20260507043004 | 41 | 0 | 0.0 | 0.0 | 0.00 | 0.00 | 0.00 | 97 | 1015.0 |
| 20260507042505 | 41 | 0 | 0.0 | 0.0 | 0.00 | 0.00 | 0.00 | 97 | 1014.9 |
| 20260507042005 | 41 | 0 | 0.0 | 0.0 | 0.00 | 0.00 | 0.00 | 97 | 1014.9 |
| 20260507041504 | 41 | 0 | 0.0 | 0.0 | 0.00 | 0.00 | 0.00 | 97 | 1014.9 |
| 20260507041005 | 42 | 0 | 0.0 | 0.0 | 0.00 | 0.00 | 0.00 | 97 | 1014.9 |
| 20260507040504 | 41 | 0 | 0.0 | 0.0 | 0.00 | 0.00 | 0.00 | 97 | 1014.8 |
| 20260507035005 | 41 | 0 | 0.0 | 0.0 | 0.00 | 0.00 | 0.00 | 96 | 1014.9 |
| 20260507032504 | 41 | 0 | 0.0 | 0.0 | 0.00 | 0.00 | 0.00 | 97 | 1014.8 |
| 20260507032004 | 41 | 0 | 0.0 | 0.0 | 0.00 | 0.00 | 0.00 | 97 | 1014.8 |
| 20260507031504 | 41 | 0 | 0.0 | 0.0 | 0.00 | 0.00 | 0.00 | 96 | 1014.8 |
| 20260507031004 | 41 | 0 | 0.0 | 0.0 | 0.00 | 0.00 | 0.00 | 97 | 1014.8 |
| 20260507030004 | 41 | 0 | 0.0 | 0.0 | 0.00 | 0.00 | 0.00 | 96 | 1014.7 |